Location: Black Swamp Observatory
(41.3920°N, 84.1250°W)
Time: 04:03:07
(UTC-04:00)

Courier 1B Rocket - Pass Details

Date: 20 January 2022
Orbit: 920 x 1202 km, 28.2° (Epoch: 28 May)

Event Time Altitude Azimuth Distance (km) Brightness Sun altitude
Exits shadow 06:47:52 - 243° (WSW) 2,958 7.1 -13.1°
Reaches altitude 10° 06:48:50 10° 238° (WSW) 2,684 6.9 -12.9°
Maximum altitude 06:53:40 23° 189° (S) 1,888 6.6 -12.0°
Drops below altitude 10° 06:58:23 10° 140° (SE) 2,607 8.2 -11.2°
Sets 07:01:30 0° 125° (SE) 3,542 9.5 -10.6°
